| time (UTC) | temp C | wind direction | speed KPH | gust KPH | rain 1hr cm | rain 24hr cm | rain mn cm | humidity % | barometer mb |
| 20260505101528 | 21 | 96 | 1.6 | 3.2 | 0.00 | 0.18 | 0.15 | 51 | 1023.2 |
| 20260505100521 | 21 | 92 | 1.6 | 3.2 | 0.00 | 0.18 | 0.15 | 51 | 1023.0 |
| 20260505095529 | 21 | 98 | 1.6 | 4.8 | 0.00 | 0.18 | 0.15 | 51 | 1023.0 |
| 20260505094518 | 21 | 77 | 0.0 | 4.8 | 0.00 | 0.18 | 0.15 | 51 | 1023.0 |
| 20260505093516 | 21 | 52 | 1.6 | 3.2 | 0.00 | 0.18 | 0.15 | 51 | 1023.0 |
| 20260505092534 | 21 | 46 | 0.0 | 1.6 | 0.00 | 0.18 | 0.15 | 51 | 1022.9 |
| 20260505091532 | 21 | 46 | 0.0 | 1.6 | 0.00 | 0.18 | 0.15 | 51 | 1022.9 |
| 20260505090530 | 21 | 0.0 | 0.0 | 0.00 | 0.18 | 0.15 | 51 | 1022.9 | |
| 20260505085553 | 21 | 0.0 | 0.0 | 0.00 | 0.18 | 0.15 | 51 | 1022.8 | |
| 20260505084536 | 21 | 36 | 0.0 | 3.2 | 0.00 | 0.18 | 0.15 | 51 | 1022.7 |
| 20260505083530 | 21 | 13 | 0.0 | 3.2 | 0.00 | 0.18 | 0.15 | 51 | 1022.6 |
| 20260505082528 | 21 | 22 | 0.0 | 1.6 | 0.00 | 0.18 | 0.15 | 51 | 1022.6 |
| 20260505081521 | 21 | 0.0 | 0.0 | 0.00 | 0.18 | 0.15 | 52 | 1022.4 | |
| 20260505080519 | 21 | 0.0 | 0.0 | 0.00 | 0.18 | 0.15 | 51 | 1022.4 | |
| 20260505075518 | 21 | 0.0 | 0.0 | 0.00 | 0.18 | 0.15 | 52 | 1022.2 | |
| 20260505074556 | 21 | 0.0 | 0.0 | 0.00 | 0.18 | 0.15 | 51 | 1022.1 | |
| 20260505073534 | 21 | 83 | 1.6 | 3.2 | 0.00 | 0.18 | 0.15 | 51 | 1022.0 |
| 20260505072613 | 21 | 73 | 0.0 | 1.6 | 0.00 | 0.18 | 0.15 | 52 | 1021.9 |
| 20260505071530 | 21 | 0.0 | 0.0 | 0.00 | 0.18 | 0.15 | 52 | 1021.9 | |
| 20260505070528 | 21 | 72 | 0.0 | 4.8 | 0.00 | 0.18 | 0.15 | 52 | 1021.8 |
| 20260505065527 | 21 | 13 | 0.0 | 1.6 | 0.00 | 0.18 | 0.15 | 52 | 1021.6 |
| 20260505064525 | 21 | 29 | 0.0 | 4.8 | 0.00 | 0.18 | 0.15 | 52 | 1021.6 |
| 20260505063543 | 21 | 31 | 0.0 | 3.2 | 0.00 | 0.18 | 0.15 | 52 | 1021.5 |
| 20260505062546 | 21 | 4 | 4.8 | 12.9 | 0.00 | 0.18 | 0.15 | 52 | 1021.5 |
| 20260505061544 | 21 | 31 | 1.6 | 4.8 | 0.00 | 0.18 | 0.15 | 52 | 1021.5 |
| 20260505060518 | 21 | 118 | 1.6 | 6.4 | 0.00 | 0.18 | 0.15 | 52 | 1021.4 |
| 20260505055536 | 21 | 101 | 3.2 | 11.3 | 0.00 | 0.18 | 0.15 | 52 | 1021.4 |
| 20260505054534 | 21 | 89 | 1.6 | 9.7 | 0.00 | 0.18 | 0.15 | 52 | 1021.2 |
| 20260505053532 | 21 | 46 | 1.6 | 3.2 | 0.00 | 0.18 | 0.15 | 52 | 1021.2 |
| 20260505052530 | 21 | 77 | 1.6 | 3.2 | 0.00 | 0.18 | 0.15 | 52 | 1021.0 |
| 20260505051528 | 21 | 83 | 1.6 | 6.4 | 0.00 | 0.18 | 0.15 | 52 | 1021.1 |
| 20260505050527 | 21 | 44 | 1.6 | 4.8 | 0.00 | 0.18 | 0.15 | 52 | 1020.9 |
| 20260505041517 | 21 | 18 | 3.2 | 9.7 | 0.00 | 0.18 | 0.15 | 53 | 1020.4 |
| 20260505040536 | 21 | 27 | 3.2 | 14.5 | 0.00 | 0.18 | 0.15 | 53 | 1020.4 |
| 20260505035533 | 21 | 22 | 3.2 | 9.7 | 0.00 | 0.18 | 0.15 | 53 | 1020.5 |
| 20260505034533 | 21 | 28 | 1.6 | 6.4 | 0.00 | 0.18 | 0.15 | 53 | 1020.5 |
| 20260505033535 | 21 | 15 | 3.2 | 11.3 | 0.00 | 0.18 | 0.15 | 53 | 1020.5 |
| 20260505032528 | 21 | 32 | 4.8 | 11.3 | 0.00 | 0.18 | 0.15 | 54 | 1020.5 |
| 20260505031526 | 21 | 24 | 3.2 | 9.7 | 0.00 | 0.18 | 0.15 | 54 | 1020.5 |
| 20260505030529 | 21 | 48 | 3.2 | 14.5 | 0.00 | 0.18 | 0.15 | 54 | 1020.5 |
| 20260505025523 | 21 | 10 | 3.2 | 9.7 | 0.00 | 0.18 | 0.15 | 54 | 1020.4 |
| 20260505024521 | 21 | 37 | 3.2 | 6.4 | 0.00 | 0.18 | 0.15 | 54 | 1020.4 |
| 20260505023519 | 20 | 31 | 4.8 | 12.9 | 0.00 | 0.18 | 0.15 | 54 | 1020.5 |
| 20260505022524 | 20 | 13 | 3.2 | 11.3 | 0.00 | 0.18 | 0.15 | 54 | 1020.6 |
| 20260505021540 | 20 | 9 | 8.0 | 14.5 | 0.00 | 0.18 | 0.15 | 54 | 1020.9 |
| 20260505020533 | 20 | 20 | 3.2 | 11.3 | 0.00 | 0.18 | 0.15 | 54 | 1020.8 |
| 20260505015537 | 20 | 21 | 4.8 | 16.1 | 0.00 | 0.18 | 0.15 | 55 | 1020.9 |
| 20260505014555 | 20 | 23 | 3.2 | 12.9 | 0.00 | 0.18 | 0.15 | 55 | 1021.0 |
| 20260505013528 | 20 | 1 | 9.7 | 25.7 | 0.00 | 0.18 | 0.15 | 55 | 1021.0 |
| 20260505012526 | 20 | 14 | 4.8 | 12.9 | 0.00 | 0.18 | 0.15 | 55 | 1021.1 |
| 20260505011610 | 20 | 18 | 8.0 | 20.9 | 0.00 | 0.18 | 0.15 | 56 | 1021.0 |
| 20260505010543 | 20 | 34 | 8.0 | 17.7 | 0.00 | 0.18 | 0.15 | 56 | 1020.8 |
| 20260505005541 | 20 | 12 | 3.2 | 12.9 | 0.00 | 0.18 | 0.15 | 56 | 1020.9 |
| 20260505004524 | 20 | 27 | 1.6 | 11.3 | 0.00 | 0.18 | 0.15 | 56 | 1021.0 |
| 20260505003522 | 20 | 27 | 3.2 | 9.7 | 0.00 | 0.18 | 0.15 | 56 | 1020.9 |
| 20260505002540 | 20 | 10 | 6.4 | 16.1 | 0.00 | 0.18 | 0.15 | 57 | 1020.7 |
| 20260505001539 | 20 | 48 | 3.2 | 9.7 | 0.00 | 0.18 | 0.15 | 57 | 1020.6 |
| 20260505000537 | 20 | 45 | 3.2 | 11.3 | 0.00 | 0.18 | 0.15 | 57 | 1020.4 |
| 20260504235530 | 19 | 49 | 3.2 | 9.7 | 0.00 | 0.18 | 0.15 | 57 | 1020.3 |
| 20260504234528 | 19 | 27 | 3.2 | 9.7 | 0.00 | 0.18 | 0.15 | 57 | 1020.1 |
| 20260504233526 | 19 | 35 | 1.6 | 11.3 | 0.00 | 0.18 | 0.15 | 57 | 1020.2 |
| 20260504232524 | 19 | 60 | 3.2 | 9.7 | 0.00 | 0.18 | 0.15 | 58 | 1020.1 |
| 20260504231527 | 19 | 26 | 4.8 | 14.5 | 0.00 | 0.18 | 0.15 | 58 | 1020.0 |
| 20260504230520 | 19 | 30 | 4.8 | 20.9 | 0.00 | 0.18 | 0.15 | 58 | 1019.9 |
| 20260504225519 | 18 | 29 | 1.6 | 9.7 | 0.00 | 0.18 | 0.15 | 58 | 1019.8 |
| 20260504224517 | 18 | 50 | 1.6 | 4.8 | 0.00 | 0.18 | 0.15 | 58 | 1019.7 |
| 20260504223555 | 18 | 31 | 4.8 | 11.3 | 0.00 | 0.18 | 0.15 | 58 | 1019.5 |
| 20260504222533 | 18 | 31 | 3.2 | 12.9 | 0.00 | 0.18 | 0.15 | 58 | 1019.4 |
| 20260504221531 | 18 | 27 | 3.2 | 6.4 | 0.00 | 0.18 | 0.15 | 58 | 1019.3 |
| 20260504220529 | 18 | 33 | 1.6 | 4.8 | 0.03 | 0.18 | 0.15 | 59 | 1019.1 |
| 20260504215550 | 18 | 41 | 4.8 | 12.9 | 0.05 | 0.18 | 0.15 | 59 | 1018.8 |
| 20260504214526 | 18 | 22 | 4.8 | 12.9 | 0.05 | 0.18 | 0.15 | 59 | 1018.5 |
| 20260504213529 | 18 | 23 | 3.2 | 9.7 | 0.05 | 0.18 | 0.15 | 59 | 1018.3 |
| 20260504212527 | 18 | 16 | 4.8 | 12.9 | 0.03 | 0.18 | 0.15 | 59 | 1018.3 |
| 20260504211541 | 18 | 29 | 3.2 | 6.4 | 0.05 | 0.18 | 0.15 | 59 | 1018.0 |
| 20260504210523 | 17 | 20 | 3.2 | 9.7 | 0.03 | 0.18 | 0.13 | 58 | 1017.8 |
| 20260504205517 | 17 | 14 | 3.2 | 14.5 | 0.00 | 0.15 | 0.10 | 57 | 1017.7 |
| 20260504204535 | 17 | 16 | 3.2 | 6.4 | 0.00 | 0.15 | 0.10 | 56 | 1017.6 |
| 20260504203533 | 17 | 20 | 3.2 | 11.3 | 0.00 | 0.15 | 0.10 | 55 | 1017.5 |
| 20260504202533 | 17 | 27 | 4.8 | 11.3 | 0.00 | 0.15 | 0.10 | 55 | 1017.3 |
| 20260504201530 | 18 | 355 | 1.6 | 12.9 | 0.00 | 0.15 | 0.10 | 55 | 1017.1 |
| 20260504200527 | 18 | 69 | 1.6 | 4.8 | 0.00 | 0.15 | 0.10 | 55 | 1017.0 |
| 20260504195526 | 18 | 15 | 1.6 | 4.8 | 0.00 | 0.15 | 0.10 | 55 | 1016.8 |
| 20260504194524 | 18 | 11 | 3.2 | 9.7 | 0.03 | 0.15 | 0.10 | 55 | 1016.7 |
| 20260504193522 | 18 | 73 | 3.2 | 11.3 | 0.03 | 0.15 | 0.10 | 55 | 1016.6 |
| 20260504192522 | 18 | 72 | 1.6 | 4.8 | 0.03 | 0.15 | 0.10 | 55 | 1016.5 |
| 20260504191518 | 18 | 90 | 1.6 | 4.8 | 0.03 | 0.13 | 0.10 | 54 | 1016.3 |
| 20260504190538 | 18 | 90 | 3.2 | 11.3 | 0.03 | 0.13 | 0.10 | 54 | 1016.4 |
| 20260504185536 | 18 | 109 | 3.2 | 12.9 | 0.03 | 0.13 | 0.10 | 54 | 1016.3 |
| 20260504184533 | 18 | 103 | 3.2 | 12.9 | 0.03 | 0.13 | 0.08 | 54 | 1016.1 |
| 20260504183531 | 18 | 79 | 3.2 | 11.3 | 0.03 | 0.13 | 0.08 | 54 | 1016.0 |
| 20260504182550 | 18 | 95 | 3.2 | 11.3 | 0.03 | 0.13 | 0.08 | 54 | 1015.9 |
| 20260504181548 | 18 | 106 | 3.2 | 9.7 | 0.03 | 0.10 | 0.08 | 54 | 1015.8 |
| 20260504180526 | 18 | 91 | 4.8 | 12.9 | 0.03 | 0.10 | 0.08 | 54 | 1015.7 |
| 20260504175524 | 18 | 91 | 3.2 | 4.8 | 0.03 | 0.10 | 0.08 | 54 | 1015.6 |
| 20260504174543 | 18 | 86 | 3.2 | 9.7 | 0.03 | 0.10 | 0.05 | 53 | 1015.6 |
| 20260504173522 | 18 | 98 | 3.2 | 11.3 | 0.03 | 0.10 | 0.05 | 53 | 1015.6 |
| 20260504172518 | 18 | 87 | 3.2 | 9.7 | 0.03 | 0.10 | 0.05 | 53 | 1015.5 |
| 20260504171517 | 19 | 80 | 3.2 | 9.7 | 0.03 | 0.10 | 0.05 | 53 | 1015.5 |
| 20260504170535 | 19 | 103 | 3.2 | 11.3 | 0.03 | 0.10 | 0.05 | 53 | 1015.5 |
| 20260504150533 | 20 | 92 | 6.4 | 20.9 | 0.03 | 0.05 | 0.03 | 52 | 1014.9 |
| 20260504140524 | 21 | 94 | 4.8 | 14.5 | 0.00 | 0.05 | 0.00 | 52 | 1014.7 |
| 20260504130531 | 21 | 71 | 4.8 | 14.5 | 0.00 | 0.03 | 0.03 | 52 | 1014.5 |
| 20260504110529 | 21 | 111 | 9.7 | 20.9 | 0.00 | 0.00 | 0.00 | 53 | 1013.4 |